EW3232 Weather Reports


Display with metric or nautical units.
time (UTC)temp
F
wind
direction
speed
MPH
gust
MPH
rain 1hr
in
rain 24hr
in
rain mn
in
humidity
%
barometer
mb
20260504043106 54 265 0.0 2.0 0.00 0.63 0.00 92 1012.1
20260504041520 54 269 1.0 2.0 0.00 0.63 0.00 92 1012.1
20260504040154 54 269 0.0 0.0 0.00 0.63 0.00 93 1012.3
20260504034538 54 269 0.0 2.0 0.00 0.63 0.00 92 1012.4
20260504033124 54 269 0.0 2.0 0.00 0.63 0.00 92 1012.3
20260504031614 54 239 1.0 2.0 0.00 0.63 0.00 92 1012.6
20260504024551 54 267 1.0 2.0 0.00 0.65 0.00 93 1012.6
20260504023135 54 267 1.0 4.0 0.00 0.65 0.00 93 1012.7
20260504021631 54 248 0.0 3.0 0.00 0.65 0.00 94 1012.1
20260504020115 54 274 0.0 2.0 0.00 0.65 0.00 94 1012.5
20260504014536 54 256 0.0 2.0 0.00 0.65 0.00 94 1012.7
20260504013135 54 256 0.0 2.0 0.00 0.65 0.00 94 1013.0
20260504011515 53 247 0.0 3.0 0.00 0.65 0.00 93 1012.9
20260504010156 53 258 1.0 3.0 0.00 0.65 0.00 93 1013.0
20260504004516 53 251 1.0 4.0 0.00 0.70 0.00 93 1013.1
20260504003047 54 279 1.0 4.0 0.00 0.70 0.00 93 1013.4
20260504001521 54 266 2.0 4.0 0.00 0.70 0.00 92 1013.4
20260504000141 54 281 0.0 2.0 0.00 0.70 0.00 92 1013.4
20260503234622 55 281 1.0 2.0 0.00 0.75 0.00 92 1013.4
20260503233102 56 311 0.0 2.0 0.00 0.75 0.00 92 1013.4
20260503231606 56 311 1.0 2.0 0.00 0.75 0.00 92 1013.6
20260503230105 57 311 0.0 2.0 0.00 0.75 0.00 92 1013.7
20260503224552 57 9 0.0 2.0 0.00 0.76 0.00 92 1013.9
20260503223030 57 9 0.0 2.0 0.00 0.76 0.00 91 1014.1
20260503221607 57 9 0.0 2.0 0.00 0.76 0.00 91 1014.1
20260503220004 57 9 0.0 2.0 0.00 0.76 0.76 90 1013.8
20260503214557 57 9 0.0 2.0 0.00 0.76 0.76 90 1013.9
20260503211559 57 9 0.0 1.0 0.00 0.76 0.76 90 1013.8
20260503210129 57 9 1.0 2.0 0.00 0.76 0.76 90 1013.6
20260503204542 57 9 0.0 3.0 0.00 0.76 0.76 90 1013.6
20260503201649 57 49 1.0 3.0 0.00 0.76 0.76 91 1013.5
20260503200010 57 15 2.0 5.0 0.00 0.76 0.76 91 1013.4
20260503194516 57 29 1.0 4.0 0.00 0.76 0.76 91 1013.6
20260503193057 57 46 1.0 3.0 0.00 0.76 0.76 90 1013.5
20260503191653 57 70 0.0 2.0 0.00 0.76 0.76 90 1013.4
20260503190039 57 70 1.0 4.0 0.00 0.76 0.76 89 1013.3
20260503184650 57 81 1.0 6.0 0.00 0.76 0.76 88 1013.3
20260503183122 57 84 1.0 5.0 0.00 0.76 0.76 85 1013.1
20260503181611 57 89 3.0 9.0 0.00 0.76 0.76 83 1012.9
20260503180136 58 83 3.0 6.0 0.00 0.76 0.76 88 1013.0
20260503174647 58 92 1.0 5.0 0.00 0.76 0.76 86 1013.0
20260503173105 58 82 3.0 8.0 0.00 0.76 0.76 84 1013.0
20260503080111 55 334 3.0 5.0 0.06 0.55 0.34 93 1015.6
20260503071640 55 123 0.0 2.0 0.11 0.55 0.33 94 1015.5
20260503070134 54 123 0.0 2.0 0.09 0.50 0.28 92 1015.7
20260503054505 55 265 0.0 4.0 0.05 0.45 0.18 94 1015.3
20260503053200 55 358 6.0 10.0 0.04 0.44 0.17 95 1014.9
20260503051655 56 21 4.0 7.0 0.02 0.41 0.14 96 1015.1